RJFF

Fukuoka Airport

Airport
ICAO code
RJFF
IATA Code
FUK
Summary
ICAO Region
APAC
ICAO Territory
Location

Hakata, Fukuoka Prefecture

Serving
Fukuoka
Elevation
30 ft
Coordinates
33° 35' 10" N , 130° 27' 4" E
KCC
Metar
RJFF 301500Z AUTO 02003KT 350V060 9999 SCT040 SCT044 BKN049 21/15 Q1010 NOSIG

Fukuoka Airport, formerly known as Itazuke Air Base, is an international and domestic airport located 1.6 nm east of Hakata, Fukuoka, Japan.

Climatology

Humid Sub-tropical climate (Köppen climate classification Cfa)

Runways

Designator Length Width Surface Rops
16/34 2800 60 ASP Yes/Yes

Airport map

Aerial View

Airport accidents

SKYbrary Partners:

Safety knowledge contributed by: